Weather History for KPAH - July, 2012

Change the Weather History Date:

Saturday, July 21, 2012

  Actual Average Record
Temperature  
Mean Temperature 83 °F 79 °F  
Max Temperature 95 °F 89 °F 99 °F (1983)
Min Temperature 70 °F 69 °F 54 °F (1971)
Degree Days  
Heating Degree Days 0 0  
Month to date heating degree days 0 0  
Since 1 June heating degree days 7 4  
Since 1 July heating degree days 0 0  
Cooling Degree Days 18 14  
Month to date cooling degree days 419 294  
Year to date cooling degree days 1158 786  
Since 1 June cooling degree days 775 614  
Growing Degree Days 32 (Base 50)    
Moisture  
Dew Point 64 °F    
Average Humidity 59    
Maximum Humidity 84    
Minimum Humidity 33    
Precipitation  
Precipitation 0.00 in 0.14 in 2.60 in (2009)
Month to date precipitation 1.05 3.09  
Year to date precipitation 12.64 28.37  
Snow  
Snow 0.00 in 0.00 in 0.00 in (2002)
Month to date snowfall 0.0 0.0  
Since 1 June snowfall 0.0 0.0  
Since 1 July snowfall 0.0 0.0  
Snow Depth 0.00 in    
Sea Level Pressure  
Sea Level Pressure 30.01 in    
Wind  
Wind Speed 6 mph (NE)    
Max Wind Speed 14 mph    
Max Gust Speed 23 mph    
Visibility 10 miles    
Events      
T = Trace of Precipitation, MM = Missing Value Source: NWS Daily Summary

Daily Weather History Graph

Daily Weather History Graph

Search for Another Location

Airport or City:

Trip Planner

Search our weather history database for the weather conditions in past years. The results will help you decide how hot, cold, wet, or windy it might be!

Date:

Astronomy

Jul. 21, 2012 Rise Set
Actual Time 5:51 AM CDT 8:10 PM CDT
Civil Twilight 5:22 AM CDT 8:40 PM CDT
Nautical Twilight 4:45 AM CDT 9:16 PM CDT
Astronomical Twilight 4:06 AM CDT 9:56 PM CDT
Moon 8:27 AM CDT (7/21) 9:28 PM CDT (7/21)
Length of Visible Light 15h 18m
Length of Day
14h 18m
Waxing Crescent, 7% of the Moon is Illuminated
Jul 21
Waxing Crescent
Jul 26
First Quarter
Aug 1
Full
Aug 9
Last Quarter
Aug 17
New

Hourly Weather History & Observations

Time (CDT) Temp. Heat Index Dew Point Humidity Pressure Visibility Wind Dir Wind Speed Gust Speed Precip Events Conditions
12:53 AM 77.0 °F - 68.0 °F 74% 29.98 in 10.0 mi NNE 8.1 mph - N/A   Clear
1:53 AM 75.0 °F - 68.0 °F 79% 29.97 in 10.0 mi NE 6.9 mph - N/A   Clear
2:53 AM 73.9 °F - 68.0 °F 82% 29.97 in 9.0 mi NE 5.8 mph - N/A   Clear
3:53 AM 73.0 °F - 68.0 °F 84% 29.98 in 8.0 mi NE 5.8 mph - N/A   Clear
4:53 AM 71.6 °F - 66.2 °F 83% 30.01 in 10.0 mi ENE 4.6 mph - N/A   Clear
5:53 AM 71.1 °F - 66.0 °F 84% 30.01 in 10.0 mi NE 6.9 mph - N/A   Clear
6:53 AM 73.0 °F - 66.0 °F 79% 30.02 in 10.0 mi NE 5.8 mph - N/A   Clear
7:53 AM 75.9 °F - 66.0 °F 71% 30.02 in 10.0 mi NE 9.2 mph - N/A   Clear
8:51 AM 78.8 °F - 66.2 °F 65% 30.04 in 10.0 mi ENE 8.1 mph - N/A   Mostly Cloudy
8:53 AM 78.1 °F - 66.0 °F 66% 30.03 in 10.0 mi ENE 8.1 mph - N/A   Mostly Cloudy
9:20 AM 80.6 °F 82.7 °F 66.2 °F 61% 30.05 in 10.0 mi NE 8.1 mph - N/A   Partly Cloudy
9:53 AM 82.0 °F 84.1 °F 66.0 °F 58% 30.03 in 10.0 mi East 8.1 mph - N/A   Partly Cloudy
10:53 AM 82.9 °F 85.0 °F 66.0 °F 56% 30.04 in 10.0 mi ENE 6.9 mph - N/A   Partly Cloudy
11:53 AM 87.1 °F 88.9 °F 64.9 °F 48% 30.04 in 10.0 mi NNE 8.1 mph - N/A   Clear
12:53 PM 89.1 °F 89.3 °F 62.1 °F 40% 30.03 in 10.0 mi North 8.1 mph - N/A   Clear
1:53 PM 91.9 °F 91.8 °F 61.0 °F 35% 30.01 in 10.0 mi ENE 6.9 mph - N/A   Clear
2:53 PM 91.9 °F 91.8 °F 61.0 °F 35% 30.01 in 10.0 mi ENE 11.5 mph 16.1 mph N/A   Clear
3:53 PM 93.9 °F 93.6 °F 60.1 °F 32% 29.99 in 10.0 mi NE 10.4 mph 23.0 mph N/A   Clear
4:53 PM 93.0 °F 92.7 °F 60.1 °F 33% 29.98 in 10.0 mi East 6.9 mph - N/A   Clear
5:53 PM 93.0 °F 93.0 °F 61.0 °F 34% 29.98 in 10.0 mi ENE 6.9 mph 16.1 mph N/A   Mostly Cloudy
6:53 PM 91.0 °F 90.2 °F 59.0 °F 34% 29.98 in 10.0 mi ENE 9.2 mph - N/A   Clear
7:53 PM 86.0 °F 85.0 °F 57.9 °F 38% 30.00 in 10.0 mi NE 5.8 mph - N/A   Clear
8:53 PM 81.0 °F 81.1 °F 57.9 °F 45% 30.00 in 10.0 mi ENE 4.6 mph - N/A   Clear
9:53 PM 78.1 °F - 59.0 °F 52% 30.01 in 10.0 mi Calm Calm - N/A   Clear
10:53 PM 75.0 °F - 61.0 °F 62% 30.02 in 10.0 mi Calm Calm - N/A   Clear
11:53 PM 73.0 °F - 62.1 °F 68% 30.03 in 10.0 mi Calm Calm - N/A   Clear